Time,TemperatureF,DewpointF,PressureIn,WindDirection,WindDirectionDegrees,WindSpeedMPH,WindSpeedGustMPH,Humidity,HourlyPrecipIn,Conditions,Clouds,dailyrainin,SoftwareType,DateUTC
2013-02-18 00:00:00,28.6,13.2,30.30,North,0,0.0,0.0,52,0.00,CLR,FEW,0.00,WeatherDisplay:10.37,2013-02-18 05:00:00,
2013-02-18 00:01:00,28.6,13.2,30.30,North,0,0.0,0.0,52,0.00,CLR,FEW,0.00,WeatherDisplay:10.37,2013-02-18 05:01:00,
2013-02-18 00:02:00,28.6,13.2,30.30,North,0,0.0,0.0,52,0.00,CLR,FEW,0.00,WeatherDisplay:10.37,2013-02-18 05:02:00,
2013-02-18 00:03:00,28.6,13.2,30.30,North,0,0.0,0.0,52,0.00,CLR,FEW,0.00,WeatherDisplay:10.37,2013-02-18 05:03:00,
2013-02-18 00:08:00,28.6,13.2,30.30,North,0,0.0,0.0,52,0.00,CLR,FEW,0.00,WeatherDisplay:10.37,2013-02-18 05:08:00,
2013-02-18 00:13:00,28.9,13.9,30.30,North,0,0.0,0.0,53,0.00,CLR,FEW,0.00,WeatherDisplay:10.37,2013-02-18 05:13:00,
2013-02-18 00:18:00,29.3,13.8,30.30,North,0,0.0,0.0,52,0.00,CLR,FEW,0.00,WeatherDisplay:10.37,2013-02-18 05:18:00,
2013-02-18 00:23:00,29.7,13.7,30.30,North,0,0.0,0.0,51,0.00,CLR,FEW,0.00,WeatherDisplay:10.37,2013-02-18 05:23:00,
2013-02-18 00:29:00,30.7,13.3,30.30,North,0,0.0,0.0,48,0.00,CLR,FEW,0.00,WeatherDisplay:10.37,2013-02-18 05:29:00,
2013-02-18 00:34:00,31.1,11.7,30.30,North,0,0.0,0.0,44,0.00,CLR,FEW,0.00,WeatherDisplay:10.37,2013-02-18 05:34:00,
2013-02-18 00:39:00,31.5,11.0,30.30,North,0,0.0,0.0,42,0.00,CLR,FEW,0.00,WeatherDisplay:10.37,2013-02-18 05:39:00,
2013-02-18 00:44:00,31.8,11.3,30.30,North,0,0.0,0.0,42,0.00,CLR,FEW,0.00,WeatherDisplay:10.37,2013-02-18 05:44:00,
2013-02-18 00:49:00,32.2,11.1,30.30,North,0,0.0,0.0,41,0.00,CLR,FEW,0.00,WeatherDisplay:10.37,2013-02-18 05:49:00,
2013-02-18 00:54:00,32.4,11.2,30.30,North,0,0.0,0.0,41,0.00,CLR,FEW,0.00,WeatherDisplay:10.37,2013-02-18 05:54:00,
2013-02-18 00:59:00,32.5,10.9,30.30,North,0,0.0,0.0,40,0.00,CLR,FEW,0.00,WeatherDisplay:10.37,2013-02-18 05:59:00,
2013-02-18 01:04:00,32.7,11.0,30.30,North,0,0.0,0.0,40,0.00,CLR,FEW,0.00,WeatherDisplay:10.37,2013-02-18 06:04:00,
2013-02-18 01:09:00,33.1,10.8,30.30,North,0,0.0,0.0,39,0.00,CLR,FEW,0.00,WeatherDisplay:10.37,2013-02-18 06:09:00,
2013-02-18 01:14:00,33.3,10.9,30.30,North,0,0.0,0.0,39,0.00,CLR,FEW,0.00,WeatherDisplay:10.37,2013-02-18 06:14:00,
2013-02-18 01:19:00,33.4,11.1,30.30,North,0,0.0,0.0,39,0.00,CLR,FEW,0.00,WeatherDisplay:10.37,2013-02-18 06:19:00,
2013-02-18 01:24:00,33.4,9.9,30.30,North,0,0.0,0.0,37,0.00,CLR,FEW,0.00,WeatherDisplay:10.37,2013-02-18 06:24:00,
2013-02-18 01:29:00,33.4,10.5,30.30,North,0,0.0,0.0,38,0.00,CLR,FEW,0.00,WeatherDisplay:10.37,2013-02-18 06:29:00,
2013-02-18 01:34:00,33.3,10.4,30.30,North,0,0.0,0.0,38,0.00,CLR,FEW,0.00,WeatherDisplay:10.37,2013-02-18 06:34:00,
2013-02-18 01:39:00,33.3,10.4,30.30,North,0,0.0,0.0,38,0.00,CLR,FEW,0.00,WeatherDisplay:10.37,2013-02-18 06:39:00,
2013-02-18 01:44:00,33.3,10.4,30.30,North,0,0.0,0.0,38,0.00,CLR,FEW,0.00,WeatherDisplay:10.37,2013-02-18 06:44:00,
2013-02-18 01:49:00,33.1,10.8,30.30,North,0,0.0,0.0,39,0.00,CLR,FEW,0.00,WeatherDisplay:10.37,2013-02-18 06:49:00,
2013-02-18 01:54:00,32.9,11.2,30.30,North,0,0.0,0.0,40,0.00,CLR,FEW,0.00,WeatherDisplay:10.37,2013-02-18 06:54:00,
2013-02-18 01:59:00,32.7,11.0,30.30,North,0,0.0,0.0,40,0.00,CLR,FEW,0.00,WeatherDisplay:10.37,2013-02-18 06:59:00,
2013-02-18 02:04:00,32.5,11.4,30.30,North,0,0.0,0.0,41,0.00,CLR,FEW,0.00,WeatherDisplay:10.37,2013-02-18 07:04:00,
2013-02-18 02:09:00,32.2,11.1,30.30,North,0,0.0,0.0,41,0.00,CLR,FEW,0.00,WeatherDisplay:10.37,2013-02-18 07:09:00,
2013-02-18 02:14:00,32.4,11.2,30.30,North,0,0.0,0.0,41,0.00,CLR,FEW,0.00,WeatherDisplay:10.37,2013-02-18 07:14:00,
2013-02-18 02:19:00,32.4,10.7,30.30,North,0,0.0,0.0,40,0.00,CLR,FEW,0.00,WeatherDisplay:10.37,2013-02-18 07:19:00,
2013-02-18 02:24:00,32.4,10.7,30.30,North,0,0.0,0.0,40,0.00,CLR,FEW,0.00,WeatherDisplay:10.37,2013-02-18 07:24:00,
2013-02-18 02:29:00,32.4,10.7,30.33,North,0,0.0,0.0,40,0.00,CLR,FEW,0.00,WeatherDisplay:10.37,2013-02-18 07:29:00,
2013-02-18 02:34:00,32.4,10.7,30.33,North,0,0.0,0.0,40,0.00,CLR,FEW,0.00,WeatherDisplay:10.37,2013-02-18 07:34:00,
2013-02-18 02:39:00,32.2,10.5,30.33,North,0,0.0,0.0,40,0.00,CLR,FEW,0.00,WeatherDisplay:10.37,2013-02-18 07:39:00,
2013-02-18 02:44:00,32.2,10.5,30.33,North,0,0.0,0.0,40,0.00,CLR,FEW,0.00,WeatherDisplay:10.37,2013-02-18 07:44:00,
2013-02-18 02:49:00,32.4,10.7,30.33,North,0,0.0,0.0,40,0.00,CLR,FEW,0.00,WeatherDisplay:10.37,2013-02-18 07:49:00,
2013-02-18 02:54:00,32.2,10.5,30.33,North,0,0.0,0.0,40,0.00,CLR,FEW,0.00,WeatherDisplay:10.37,2013-02-18 07:54:00,
2013-02-18 02:59:00,32.2,10.5,30.33,North,0,0.0,0.0,40,0.00,CLR,FEW,0.00,WeatherDisplay:10.37,2013-02-18 07:59:00,
2013-02-18 03:04:00,32.0,10.4,30.33,North,0,0.0,0.0,40,0.00,CLR,FEW,0.00,WeatherDisplay:10.37,2013-02-18 08:04:00,
2013-02-18 03:09:00,31.8,10.2,30.33,North,0,0.0,0.0,40,0.00,CLR,FEW,0.00,WeatherDisplay:10.37,2013-02-18 08:09:00,
2013-02-18 03:14:00,31.8,10.2,30.33,North,0,0.0,0.0,40,0.00,CLR,FEW,0.00,WeatherDisplay:10.37,2013-02-18 08:14:00,
2013-02-18 03:19:00,31.6,10.6,30.33,North,0,0.0,0.0,41,0.00,CLR,FEW,0.00,WeatherDisplay:10.37,2013-02-18 08:19:00,
2013-02-18 03:24:00,31.5,10.4,30.33,North,0,0.0,0.0,41,0.00,CLR,FEW,0.00,WeatherDisplay:10.37,2013-02-18 08:24:00,
2013-02-18 03:30:00,31.5,10.4,30.33,North,0,0.0,0.0,41,0.00,CLR,FEW,0.00,WeatherDisplay:10.37,2013-02-18 08:30:00,
2013-02-18 03:35:00,31.6,10.6,30.33,North,0,0.0,0.0,41,0.00,CLR,FEW,0.00,WeatherDisplay:10.37,2013-02-18 08:35:00,
2013-02-18 03:40:00,31.5,10.4,30.33,North,0,0.0,0.0,41,0.00,CLR,FEW,0.00,WeatherDisplay:10.37,2013-02-18 08:40:00,
2013-02-18 03:45:00,31.3,10.3,30.33,North,0,0.0,0.0,41,0.00,CLR,FEW,0.00,WeatherDisplay:10.37,2013-02-18 08:45:00,
2013-02-18 03:50:00,31.3,10.3,30.33,North,0,0.0,0.0,41,0.00,CLR,FEW,0.00,WeatherDisplay:10.37,2013-02-18 08:50:00,
2013-02-18 03:55:00,31.1,10.1,30.33,North,0,0.0,0.0,41,0.00,CLR,FEW,0.00,WeatherDisplay:10.37,2013-02-18 08:55:00,
2013-02-18 04:00:00,30.9,10.5,30.33,North,0,0.0,0.0,42,0.00,CLR,FEW,0.00,WeatherDisplay:10.37,2013-02-18 09:00:00,
2013-02-18 04:05:00,30.9,10.5,30.33,North,0,0.0,0.0,42,0.00,CLR,FEW,0.00,WeatherDisplay:10.37,2013-02-18 09:05:00,
2013-02-18 04:10:00,30.7,10.3,30.33,North,0,0.0,0.0,42,0.00,CLR,FEW,0.00,WeatherDisplay:10.37,2013-02-18 09:10:00,
2013-02-18 04:15:00,30.6,10.2,30.33,North,0,0.0,0.0,42,0.00,CLR,FEW,0.00,WeatherDisplay:10.37,2013-02-18 09:15:00,
2013-02-18 04:20:00,30.2,9.8,30.33,North,0,0.0,0.0,42,0.00,CLR,FEW,0.00,WeatherDisplay:10.37,2013-02-18 09:20:00,
2013-02-18 04:26:00,30.0,10.2,30.33,North,0,0.0,0.0,43,0.00,CLR,FEW,0.00,WeatherDisplay:10.37,2013-02-18 09:26:00,
2013-02-18 04:31:00,29.8,10.0,30.33,North,0,0.0,0.0,43,0.00,CLR,FEW,0.00,WeatherDisplay:10.37,2013-02-18 09:31:00,
2013-02-18 04:36:00,29.7,9.9,30.33,North,0,0.0,0.0,43,0.00,CLR,FEW,0.00,WeatherDisplay:10.37,2013-02-18 09:36:00,
2013-02-18 04:41:00,29.7,10.4,30.33,North,0,0.0,0.0,44,0.00,CLR,FEW,0.00,WeatherDisplay:10.37,2013-02-18 09:41:00,
2013-02-18 04:46:00,29.7,10.4,30.33,North,0,0.0,0.0,44,0.00,CLR,FEW,0.00,WeatherDisplay:10.37,2013-02-18 09:46:00,
2013-02-18 04:51:00,29.7,10.4,30.33,North,0,0.0,0.0,44,0.00,CLR,FEW,0.00,WeatherDisplay:10.37,2013-02-18 09:51:00,
2013-02-18 04:56:00,29.5,10.2,30.33,North,0,0.0,0.0,44,0.00,CLR,FEW,0.00,WeatherDisplay:10.37,2013-02-18 09:56:00,
2013-02-18 05:01:00,29.5,10.2,30.33,North,0,0.0,0.0,44,0.00,CLR,FEW,0.00,WeatherDisplay:10.37,2013-02-18 10:01:00,
2013-02-18 05:06:00,29.5,10.7,30.33,North,0,0.0,0.0,45,0.00,CLR,FEW,0.00,WeatherDisplay:10.37,2013-02-18 10:06:00,
2013-02-18 05:11:00,29.3,10.6,30.33,North,0,0.0,0.0,45,0.00,CLR,FEW,0.00,WeatherDisplay:10.37,2013-02-18 10:11:00,
2013-02-18 05:16:00,29.3,10.6,30.33,North,0,0.0,0.0,45,0.00,CLR,FEW,0.00,WeatherDisplay:10.37,2013-02-18 10:16:00,
2013-02-18 05:21:00,29.1,10.4,30.33,North,0,0.0,0.0,45,0.00,CLR,FEW,0.00,WeatherDisplay:10.37,2013-02-18 10:21:00,
2013-02-18 05:26:00,29.1,10.4,30.33,North,0,0.0,0.0,45,0.00,CLR,FEW,0.00,WeatherDisplay:10.37,2013-02-18 10:26:00,
2013-02-18 05:31:00,28.9,11.2,30.36,North,0,0.0,0.0,47,0.00,CLR,FEW,0.00,WeatherDisplay:10.37,2013-02-18 10:31:00,
2013-02-18 05:36:00,28.9,10.7,30.36,North,0,0.0,0.0,46,0.00,CLR,FEW,0.00,WeatherDisplay:10.37,2013-02-18 10:36:00,
2013-02-18 05:41:00,28.9,11.2,30.36,North,0,0.0,0.0,47,0.00,CLR,FEW,0.00,WeatherDisplay:10.37,2013-02-18 10:41:00,
2013-02-18 05:46:00,28.8,10.6,30.36,North,0,0.0,0.0,46,0.00,CLR,FEW,0.00,WeatherDisplay:10.37,2013-02-18 10:46:00,
2013-02-18 05:51:00,28.8,11.0,30.36,North,0,0.0,0.0,47,0.00,CLR,FEW,0.00,WeatherDisplay:10.37,2013-02-18 10:51:00,
2013-02-18 05:56:00,28.8,11.0,30.36,North,0,0.0,0.0,47,0.00,CLR,FEW,0.00,WeatherDisplay:10.37,2013-02-18 10:56:00,
2013-02-18 06:01:00,28.6,10.9,30.36,North,0,0.0,0.0,47,0.00,CLR,FEW,0.00,WeatherDisplay:10.37,2013-02-18 11:01:00,
2013-02-18 06:06:00,28.6,10.9,30.36,North,0,0.0,0.0,47,0.00,CLR,FEW,0.00,WeatherDisplay:10.37,2013-02-18 11:06:00,
2013-02-18 06:11:00,28.6,10.9,30.36,North,0,0.0,0.0,47,0.00,CLR,FEW,0.00,WeatherDisplay:10.37,2013-02-18 11:11:00,
2013-02-18 06:16:00,28.6,10.9,30.36,North,0,0.0,0.0,47,0.00,CLR,FEW,0.00,WeatherDisplay:10.37,2013-02-18 11:16:00,
2013-02-18 06:21:00,28.6,10.9,30.36,North,0,0.0,0.0,47,0.00,CLR,FEW,0.00,WeatherDisplay:10.37,2013-02-18 11:21:00,
2013-02-18 06:26:00,28.2,10.5,30.36,North,0,0.0,0.0,47,0.00,CLR,FEW,0.00,WeatherDisplay:10.37,2013-02-18 11:26:00,
2013-02-18 06:31:00,28.0,10.4,30.36,North,0,0.0,0.0,47,0.00,CLR,FEW,0.00,WeatherDisplay:10.37,2013-02-18 11:31:00,
2013-02-18 06:36:00,27.9,10.7,30.36,North,0,0.0,0.0,48,0.00,CLR,FEW,0.00,WeatherDisplay:10.37,2013-02-18 11:36:00,
2013-02-18 06:41:00,27.9,11.1,30.36,North,0,0.0,0.0,49,0.00,CLR,FEW,0.00,WeatherDisplay:10.37,2013-02-18 11:41:00,
2013-02-18 06:46:00,27.9,11.6,30.39,North,0,0.0,0.0,50,0.00,CLR,FEW,0.00,WeatherDisplay:10.37,2013-02-18 11:46:00,
2013-02-18 06:51:00,27.9,12.1,30.39,North,0,0.0,0.0,51,0.00,CLR,FEW,0.00,WeatherDisplay:10.37,2013-02-18 11:51:00,
2013-02-18 06:56:00,27.9,12.5,30.39,North,0,0.0,0.0,52,0.00,CLR,FEW,0.00,WeatherDisplay:10.37,2013-02-18 11:56:00,
2013-02-18 07:01:00,27.7,12.3,30.39,North,0,0.0,0.0,52,0.00,CLR,FEW,0.00,WeatherDisplay:10.37,2013-02-18 12:01:00,
2013-02-18 07:06:00,27.7,13.2,30.39,North,0,0.0,0.0,54,0.00,CLR,FEW,0.00,WeatherDisplay:10.37,2013-02-18 12:06:00,
2013-02-18 07:11:00,27.7,13.2,30.39,North,0,0.0,0.0,54,0.00,CLR,FEW,0.00,WeatherDisplay:10.37,2013-02-18 12:11:00,
2013-02-18 07:16:00,27.7,13.6,30.39,North,0,0.0,0.0,55,0.00,CLR,FEW,0.00,WeatherDisplay:10.37,2013-02-18 12:16:00,
2013-02-18 07:21:00,27.9,13.8,30.39,North,0,0.0,0.0,55,0.00,CLR,FEW,0.00,WeatherDisplay:10.37,2013-02-18 12:21:00,
2013-02-18 07:26:00,28.2,14.1,30.39,North,0,0.0,0.0,55,0.00,CLR,FEW,0.00,WeatherDisplay:10.37,2013-02-18 12:26:00,
2013-02-18 07:31:00,28.6,14.4,30.39,North,0,0.0,0.0,55,0.00,CLR,FEW,0.00,WeatherDisplay:10.37,2013-02-18 12:31:00,
2013-02-18 07:36:00,28.8,14.2,30.39,North,0,0.0,0.0,54,0.00,CLR,FEW,0.00,WeatherDisplay:10.37,2013-02-18 12:36:00,
2013-02-18 07:41:00,29.1,14.5,30.39,North,0,0.0,0.0,54,0.00,CLR,FEW,0.00,WeatherDisplay:10.37,2013-02-18 12:41:00,
2013-02-18 07:46:00,29.7,15.0,30.39,North,0,0.0,0.0,54,0.00,CLR,FEW,0.00,WeatherDisplay:10.37,2013-02-18 12:46:00,
2013-02-18 07:51:00,30.4,15.3,30.39,North,0,0.0,0.0,53,0.00,CLR,FEW,0.00,WeatherDisplay:10.37,2013-02-18 12:51:00,
2013-02-18 07:56:00,31.5,15.4,30.39,North,0,0.0,0.0,51,0.00,CLR,FEW,0.00,WeatherDisplay:10.37,2013-02-18 12:56:00,
2013-02-18 08:01:00,32.5,15.5,30.39,North,0,0.0,0.0,49,0.00,CLR,FEW,0.00,WeatherDisplay:10.37,2013-02-18 13:01:00,
2013-02-18 08:06:00,33.3,14.2,30.39,North,0,0.0,0.0,45,0.00,CLR,FEW,0.00,WeatherDisplay:10.37,2013-02-18 13:06:00,
2013-02-18 08:11:00,33.8,13.1,30.39,North,0,0.0,0.0,42,0.00,CLR,FEW,0.00,WeatherDisplay:10.37,2013-02-18 13:11:00,
2013-02-18 08:16:00,34.3,13.6,30.39,North,0,0.0,0.0,42,0.00,CLR,FEW,0.00,WeatherDisplay:10.37,2013-02-18 13:16:00,
2013-02-18 08:21:00,34.9,13.5,30.39,North,0,0.0,0.0,41,0.00,CLR,FEW,0.00,WeatherDisplay:10.37,2013-02-18 13:21:00,
2013-02-18 08:26:00,35.4,13.5,30.39,North,0,0.0,0.0,40,0.00,CLR,FEW,0.00,WeatherDisplay:10.37,2013-02-18 13:26:00,
2013-02-18 08:31:00,36.0,13.9,30.42,North,0,0.0,0.0,40,0.00,CLR,FEW,0.00,WeatherDisplay:10.37,2013-02-18 13:31:00,
2013-02-18 08:36:00,36.7,14.0,30.42,North,0,0.0,0.0,39,0.00,CLR,FEW,0.00,WeatherDisplay:10.37,2013-02-18 13:36:00,
2013-02-18 08:41:00,37.0,13.7,30.42,North,0,0.0,0.0,38,0.00,CLR,FEW,0.00,WeatherDisplay:10.37,2013-02-18 13:41:00,
2013-02-18 08:46:00,37.6,13.6,30.42,North,0,0.0,0.0,37,0.00,CLR,FEW,0.00,WeatherDisplay:10.37,2013-02-18 13:46:00,
2013-02-18 08:51:00,38.5,12.5,30.42,North,0,0.0,0.0,34,0.00,CLR,FEW,0.00,WeatherDisplay:10.37,2013-02-18 13:51:00,
2013-02-18 08:56:00,38.8,12.1,30.42,North,0,0.0,0.0,33,0.00,CLR,FEW,0.00,WeatherDisplay:10.37,2013-02-18 13:56:00,
2013-02-18 09:01:00,39.2,12.5,30.42,North,0,0.0,0.0,33,0.00,CLR,FEW,0.00,WeatherDisplay:10.37,2013-02-18 14:01:00,
2013-02-18 09:06:00,39.7,12.2,30.42,North,0,0.0,0.0,32,0.00,CLR,FEW,0.00,WeatherDisplay:10.37,2013-02-18 14:06:00,
2013-02-18 09:11:00,40.1,13.3,30.42,North,0,0.0,0.0,33,0.00,CLR,FEW,0.00,WeatherDisplay:10.37,2013-02-18 14:11:00,
2013-02-18 09:16:00,40.6,13.0,30.42,North,0,0.0,0.0,32,0.00,CLR,FEW,0.00,WeatherDisplay:10.37,2013-02-18 14:16:00,
2013-02-18 09:21:00,41.2,13.5,30.42,North,0,0.0,0.0,32,0.00,CLR,FEW,0.00,WeatherDisplay:10.37,2013-02-18 14:21:00,
2013-02-18 09:26:00,41.7,12.5,30.42,North,0,0.0,0.0,30,0.00,CLR,FEW,0.00,WeatherDisplay:10.37,2013-02-18 14:26:00,
2013-02-18 09:31:00,43.0,13.6,30.42,North,0,0.0,0.0,30,0.00,CLR,FEW,0.00,WeatherDisplay:10.37,2013-02-18 14:31:00,
2013-02-18 09:36:00,43.5,13.3,30.42,North,0,0.0,0.0,29,0.00,CLR,FEW,0.00,WeatherDisplay:10.37,2013-02-18 14:36:00,
2013-02-18 09:41:00,43.7,13.5,30.42,North,0,0.0,0.0,29,0.00,CLR,FEW,0.00,WeatherDisplay:10.37,2013-02-18 14:41:00,
2013-02-18 09:46:00,43.5,13.3,30.42,North,0,0.0,0.0,29,0.00,CLR,FEW,0.00,WeatherDisplay:10.37,2013-02-18 14:46:00,
2013-02-18 09:51:00,43.3,12.4,30.42,North,0,0.0,0.0,28,0.00,CLR,FEW,0.00,WeatherDisplay:10.37,2013-02-18 14:51:00,
2013-02-18 09:56:00,43.3,13.2,30.42,North,0,0.0,0.0,29,0.00,CLR,FEW,0.00,WeatherDisplay:10.37,2013-02-18 14:56:00,
2013-02-18 10:01:00,43.5,14.8,30.42,North,0,0.0,0.0,31,0.00,CLR,FEW,0.00,WeatherDisplay:10.37,2013-02-18 15:01:00,
2013-02-18 10:06:00,43.7,15.7,30.42,North,0,0.0,0.0,32,0.00,CLR,FEW,0.00,WeatherDisplay:10.37,2013-02-18 15:06:00,
2013-02-18 10:11:00,44.1,16.8,30.42,North,0,0.0,0.0,33,0.00,CLR,FEW,0.00,WeatherDisplay:10.37,2013-02-18 15:11:00,
2013-02-18 10:16:00,44.1,17.4,30.42,North,0,0.0,0.0,34,0.00,CLR,FEW,0.00,WeatherDisplay:10.37,2013-02-18 15:16:00,
2013-02-18 10:21:00,44.1,18.1,30.42,North,0,0.0,0.0,35,0.00,CLR,FEW,0.00,WeatherDisplay:10.37,2013-02-18 15:21:00,
2013-02-18 10:27:00,44.6,18.6,30.42,North,0,0.0,0.0,35,0.00,CLR,FEW,0.00,WeatherDisplay:10.37,2013-02-18 15:27:00,
2013-02-18 10:32:00,44.6,18.6,30.42,North,0,0.0,0.0,35,0.00,CLR,FEW,0.00,WeatherDisplay:10.37,2013-02-18 15:32:00,
2013-02-18 10:37:00,44.8,19.4,30.42,North,0,0.0,0.0,36,0.00,CLR,FEW,0.00,WeatherDisplay:10.37,2013-02-18 15:37:00,
2013-02-18 10:42:00,44.8,18.8,30.42,North,0,0.0,0.0,35,0.00,CLR,FEW,0.00,WeatherDisplay:10.37,2013-02-18 15:42:00,
2013-02-18 10:47:00,45.5,20.7,30.42,North,0,0.0,0.0,37,0.00,CLR,FEW,0.00,WeatherDisplay:10.37,2013-02-18 15:47:00,
2013-02-18 10:52:00,45.7,20.9,30.42,North,0,0.0,0.0,37,0.00,CLR,FEW,0.00,WeatherDisplay:10.37,2013-02-18 15:52:00,
2013-02-18 10:57:00,45.9,19.7,30.42,North,0,0.0,0.0,35,0.00,CLR,FEW,0.00,WeatherDisplay:10.37,2013-02-18 15:57:00,
2013-02-18 11:02:00,45.5,20.1,30.44,North,0,0.0,0.0,36,0.00,CLR,FEW,0.00,WeatherDisplay:10.37,2013-02-18 16:02:00,
2013-02-18 11:07:00,46.0,19.9,30.44,North,0,0.0,0.0,35,0.00,CLR,FEW,0.00,WeatherDisplay:10.37,2013-02-18 16:07:00,
2013-02-18 11:12:00,46.4,20.2,30.44,North,0,0.0,0.0,35,0.00,CLR,FEW,0.00,WeatherDisplay:10.37,2013-02-18 16:12:00,
2013-02-18 11:17:00,46.6,17.5,30.42,North,0,0.0,0.0,31,0.00,CLR,FEW,0.00,WeatherDisplay:10.37,2013-02-18 16:17:00,
2013-02-18 11:22:00,46.4,18.1,30.42,North,0,0.0,0.0,32,0.00,CLR,FEW,0.00,WeatherDisplay:10.37,2013-02-18 16:22:00,
2013-02-18 11:27:00,46.8,17.7,30.42,North,0,0.0,0.0,31,0.00,CLR,FEW,0.00,WeatherDisplay:10.37,2013-02-18 16:27:00,
2013-02-18 11:32:00,47.1,17.2,30.42,North,0,0.0,0.0,30,0.00,CLR,FEW,0.00,WeatherDisplay:10.37,2013-02-18 16:32:00,
2013-02-18 11:37:00,47.3,17.4,30.42,North,0,0.0,0.0,30,0.00,CLR,FEW,0.00,WeatherDisplay:10.37,2013-02-18 16:37:00,
2013-02-18 11:42:00,47.3,16.6,30.42,North,0,0.0,0.0,29,0.00,CLR,FEW,0.00,WeatherDisplay:10.37,2013-02-18 16:42:00,
2013-02-18 11:47:00,47.1,17.2,30.42,North,0,0.0,0.0,30,0.00,CLR,FEW,0.00,WeatherDisplay:10.37,2013-02-18 16:47:00,
2013-02-18 11:52:00,47.1,16.4,30.42,North,0,0.0,0.0,29,0.00,CLR,FEW,0.00,WeatherDisplay:10.37,2013-02-18 16:52:00,
2013-02-18 11:57:00,47.1,16.4,30.42,North,0,0.0,0.0,29,0.00,CLR,FEW,0.00,WeatherDisplay:10.37,2013-02-18 16:57:00,
2013-02-18 12:02:00,47.3,16.6,30.42,North,0,0.0,0.0,29,0.00,CLR,FEW,0.00,WeatherDisplay:10.37,2013-02-18 17:02:00,
2013-02-18 12:07:00,47.3,16.6,30.42,North,0,0.0,0.0,29,0.00,CLR,FEW,0.00,WeatherDisplay:10.37,2013-02-18 17:07:00,
2013-02-18 12:12:00,47.7,16.9,30.42,North,0,0.0,0.0,29,0.00,CLR,FEW,0.00,WeatherDisplay:10.37,2013-02-18 17:12:00,
2013-02-18 12:17:00,48.2,16.6,30.42,North,0,0.0,0.0,28,0.00,CLR,FEW,0.00,WeatherDisplay:10.37,2013-02-18 17:17:00,
2013-02-18 12:22:00,48.2,16.6,30.42,North,0,0.0,0.0,28,0.00,CLR,FEW,0.00,WeatherDisplay:10.37,2013-02-18 17:22:00,
2013-02-18 12:27:00,48.4,15.9,30.42,North,0,0.0,0.0,27,0.00,CLR,FEW,0.00,WeatherDisplay:10.37,2013-02-18 17:27:00,
2013-02-18 12:32:00,48.7,16.2,30.42,North,0,0.0,0.0,27,0.00,CLR,FEW,0.00,WeatherDisplay:10.37,2013-02-18 17:32:00,
2013-02-18 12:37:00,49.1,16.5,30.42,North,0,0.0,0.0,27,0.00,CLR,FEW,0.00,WeatherDisplay:10.37,2013-02-18 17:37:00,
2013-02-18 12:42:00,49.1,16.5,30.42,North,0,0.0,0.0,27,0.00,CLR,FEW,0.00,WeatherDisplay:10.37,2013-02-18 17:42:00,
2013-02-18 12:48:00,49.3,16.7,30.42,North,0,0.0,0.0,27,0.00,CLR,FEW,0.00,WeatherDisplay:10.37,2013-02-18 17:48:00,
2013-02-18 12:53:00,49.6,17.0,30.42,North,0,0.0,0.0,27,0.00,CLR,FEW,0.00,WeatherDisplay:10.37,2013-02-18 17:53:00,
2013-02-18 12:58:00,49.6,17.0,30.39,North,0,0.0,0.0,27,0.00,CLR,FEW,0.00,WeatherDisplay:10.37,2013-02-18 17:58:00,
2013-02-18 13:03:00,49.8,17.1,30.39,North,0,0.0,0.0,27,0.00,CLR,FEW,0.00,WeatherDisplay:10.37,2013-02-18 18:03:00,
2013-02-18 13:08:00,50.2,16.6,30.39,North,0,0.0,0.0,26,0.00,CLR,FEW,0.00,WeatherDisplay:10.37,2013-02-18 18:08:00,
2013-02-18 13:13:00,50.5,16.9,30.39,North,0,0.0,0.0,26,0.00,CLR,FEW,0.00,WeatherDisplay:10.37,2013-02-18 18:13:00,
2013-02-18 13:18:00,50.7,17.0,30.39,North,0,0.0,0.0,26,0.00,CLR,FEW,0.00,WeatherDisplay:10.37,2013-02-18 18:18:00,
2013-02-18 13:24:00,50.7,17.0,30.39,North,0,0.0,0.0,26,0.00,CLR,FEW,0.00,WeatherDisplay:10.37,2013-02-18 18:24:00,
2013-02-18 13:29:00,50.5,16.9,30.39,North,0,0.0,0.0,26,0.00,CLR,FEW,0.00,WeatherDisplay:10.37,2013-02-18 18:29:00,
2013-02-18 13:34:00,50.5,16.9,30.39,North,0,0.0,0.0,26,0.00,CLR,FEW,0.00,WeatherDisplay:10.37,2013-02-18 18:34:00,
2013-02-18 13:39:00,50.4,16.7,30.39,North,0,0.0,0.0,26,0.00,CLR,FEW,0.00,WeatherDisplay:10.37,2013-02-18 18:39:00,
2013-02-18 13:44:00,50.5,16.9,30.39,North,0,0.0,0.0,26,0.00,CLR,FEW,0.00,WeatherDisplay:10.37,2013-02-18 18:44:00,
2013-02-18 13:49:00,50.7,17.0,30.39,North,0,0.0,0.0,26,0.00,CLR,FEW,0.00,WeatherDisplay:10.37,2013-02-18 18:49:00,
2013-02-18 13:54:00,50.9,17.2,30.39,North,0,0.0,0.0,26,0.00,CLR,FEW,0.00,WeatherDisplay:10.37,2013-02-18 18:54:00,
2013-02-18 13:59:00,51.1,15.5,30.39,North,0,0.0,0.0,24,0.00,CLR,FEW,0.00,WeatherDisplay:10.37,2013-02-18 18:59:00,
2013-02-18 14:05:00,50.9,17.2,30.39,North,0,0.0,0.0,26,0.00,CLR,FEW,0.00,WeatherDisplay:10.37,2013-02-18 19:05:00,
2013-02-18 14:10:00,50.9,15.3,30.39,North,0,0.0,0.0,24,0.00,CLR,FEW,0.00,WeatherDisplay:10.37,2013-02-18 19:10:00,
2013-02-18 14:15:00,50.9,17.2,30.39,North,0,0.0,0.0,26,0.00,CLR,FEW,0.00,WeatherDisplay:10.37,2013-02-18 19:15:00,
2013-02-18 14:20:00,51.1,15.5,30.39,North,0,0.0,0.0,24,0.00,CLR,FEW,0.00,WeatherDisplay:10.37,2013-02-18 19:20:00,
2013-02-18 14:25:00,50.7,15.2,30.39,North,0,0.0,0.0,24,0.00,CLR,FEW,0.00,WeatherDisplay:10.37,2013-02-18 19:25:00,
2013-02-18 14:30:00,50.9,15.3,30.39,North,0,0.0,0.0,24,0.00,CLR,FEW,0.00,WeatherDisplay:10.37,2013-02-18 19:30:00,
2013-02-18 14:35:00,50.7,15.2,30.39,North,0,0.0,0.0,24,0.00,CLR,FEW,0.00,WeatherDisplay:10.37,2013-02-18 19:35:00,
2013-02-18 14:40:00,50.5,15.0,30.39,North,0,0.0,0.0,24,0.00,CLR,FEW,0.00,WeatherDisplay:10.37,2013-02-18 19:40:00,
2013-02-18 14:45:00,50.5,15.0,30.39,North,0,0.0,0.0,24,0.00,CLR,FEW,0.00,WeatherDisplay:10.37,2013-02-18 19:45:00,
2013-02-18 14:50:00,50.2,14.7,30.39,North,0,0.0,0.0,24,0.00,CLR,FEW,0.00,WeatherDisplay:10.37,2013-02-18 19:50:00,
2013-02-18 14:55:00,50.2,14.7,30.39,North,0,0.0,0.0,24,0.00,CLR,FEW,0.00,WeatherDisplay:10.37,2013-02-18 19:55:00,
2013-02-18 15:00:00,50.4,14.9,30.39,North,0,0.0,0.0,24,0.00,CLR,FEW,0.00,WeatherDisplay:10.37,2013-02-18 20:00:00,
2013-02-18 15:05:00,50.2,14.7,30.39,North,0,0.0,0.0,24,0.00,CLR,FEW,0.00,WeatherDisplay:10.37,2013-02-18 20:05:00,
2013-02-18 15:10:00,49.8,14.4,30.39,North,0,0.0,0.0,24,0.00,CLR,FEW,0.00,WeatherDisplay:10.37,2013-02-18 20:10:00,
2013-02-18 15:15:00,49.6,14.3,30.36,North,0,0.0,0.0,24,0.00,CLR,FEW,0.00,WeatherDisplay:10.37,2013-02-18 20:15:00,
2013-02-18 15:20:00,49.6,11.2,30.36,North,0,0.0,0.0,21,0.00,CLR,FEW,0.00,WeatherDisplay:10.37,2013-02-18 20:20:00,
2013-02-18 15:25:00,49.5,11.1,30.36,North,0,0.0,0.0,21,0.00,CLR,FEW,0.00,WeatherDisplay:10.37,2013-02-18 20:25:00,
2013-02-18 15:31:00,49.6,11.2,30.36,North,0,0.0,0.0,21,0.00,CLR,FEW,0.00,WeatherDisplay:10.37,2013-02-18 20:31:00,
2013-02-18 15:36:00,49.8,14.4,30.36,North,0,0.0,0.0,24,0.00,CLR,FEW,0.00,WeatherDisplay:10.37,2013-02-18 20:36:00,
2013-02-18 15:42:00,49.6,11.2,30.36,North,0,0.0,0.0,21,0.00,CLR,FEW,0.00,WeatherDisplay:10.37,2013-02-18 20:42:00,
2013-02-18 15:47:00,49.5,14.1,30.36,North,0,0.0,0.0,24,0.00,CLR,FEW,0.00,WeatherDisplay:10.37,2013-02-18 20:47:00,
2013-02-18 15:52:00,49.5,14.1,30.36,North,0,0.0,0.0,24,0.00,CLR,FEW,0.00,WeatherDisplay:10.37,2013-02-18 20:52:00,
2013-02-18 15:57:00,49.5,14.1,30.36,North,0,0.0,0.0,24,0.00,CLR,FEW,0.00,WeatherDisplay:10.37,2013-02-18 20:57:00,
2013-02-18 16:02:00,49.3,10.9,30.36,North,0,0.0,0.0,21,0.00,CLR,FEW,0.00,WeatherDisplay:10.37,2013-02-18 21:02:00,
2013-02-18 16:07:00,49.3,10.9,30.36,North,0,0.0,0.0,21,0.00,CLR,FEW,0.00,WeatherDisplay:10.37,2013-02-18 21:07:00,
2013-02-18 16:13:00,49.1,10.8,30.36,North,0,0.0,0.0,21,0.00,CLR,FEW,0.00,WeatherDisplay:10.37,2013-02-18 21:13:00,
2013-02-18 16:18:00,49.1,10.8,30.36,North,0,0.0,0.0,21,0.00,CLR,FEW,0.00,WeatherDisplay:10.37,2013-02-18 21:18:00,
2013-02-18 16:23:00,49.1,10.8,30.36,North,0,0.0,0.0,21,0.00,CLR,FEW,0.00,WeatherDisplay:10.37,2013-02-18 21:23:00,
2013-02-18 16:28:00,49.1,10.8,30.36,North,0,0.0,0.0,21,0.00,CLR,FEW,0.00,WeatherDisplay:10.37,2013-02-18 21:28:00,
2013-02-18 16:33:00,49.1,10.8,30.36,North,0,0.0,0.0,21,0.00,CLR,FEW,0.00,WeatherDisplay:10.37,2013-02-18 21:33:00,
2013-02-18 16:38:00,49.1,10.8,30.36,North,0,0.0,0.0,21,0.00,CLR,FEW,0.00,WeatherDisplay:10.37,2013-02-18 21:38:00,
2013-02-18 16:43:00,49.1,10.8,30.36,North,0,0.0,0.0,21,0.00,CLR,FEW,0.00,WeatherDisplay:10.37,2013-02-18 21:43:00,
2013-02-18 16:48:00,48.9,13.6,30.36,North,0,0.0,0.0,24,0.00,CLR,FEW,0.00,WeatherDisplay:10.37,2013-02-18 21:48:00,
2013-02-18 16:53:00,48.7,13.5,30.36,North,0,0.0,0.0,24,0.00,CLR,FEW,0.00,WeatherDisplay:10.37,2013-02-18 21:53:00,
2013-02-18 16:58:00,48.6,13.3,30.36,North,0,0.0,0.0,24,0.00,CLR,FEW,0.00,WeatherDisplay:10.37,2013-02-18 21:58:00,
2013-02-18 17:03:00,48.4,15.0,30.36,North,0,0.0,0.0,26,0.00,CLR,FEW,0.00,WeatherDisplay:10.37,2013-02-18 22:03:00,
2013-02-18 17:08:00,48.4,15.0,30.36,North,0,0.0,0.0,26,0.00,CLR,FEW,0.00,WeatherDisplay:10.37,2013-02-18 22:08:00,
2013-02-18 17:13:00,48.4,15.0,30.36,North,0,0.0,0.0,26,0.00,CLR,FEW,0.00,WeatherDisplay:10.37,2013-02-18 22:13:00,
2013-02-18 17:18:00,48.4,15.0,30.36,North,0,0.0,0.0,26,0.00,CLR,FEW,0.00,WeatherDisplay:10.37,2013-02-18 22:18:00,
2013-02-18 17:23:00,48.4,15.0,30.36,North,0,0.0,0.0,26,0.00,CLR,FEW,0.00,WeatherDisplay:10.37,2013-02-18 22:23:00,
2013-02-18 17:28:00,48.4,15.0,30.36,North,0,0.0,0.0,26,0.00,CLR,FEW,0.00,WeatherDisplay:10.37,2013-02-18 22:28:00,
2013-02-18 17:33:00,48.2,15.7,30.36,North,0,0.0,0.0,27,0.00,CLR,FEW,0.00,WeatherDisplay:10.37,2013-02-18 22:33:00,
2013-02-18 17:38:00,48.0,15.6,30.36,North,0,0.0,0.0,27,0.00,CLR,FEW,0.00,WeatherDisplay:10.37,2013-02-18 22:38:00,
2013-02-18 17:43:00,47.8,15.4,30.36,North,0,0.0,0.0,27,0.00,CLR,FEW,0.00,WeatherDisplay:10.37,2013-02-18 22:43:00,
2013-02-18 17:48:00,47.7,15.3,30.36,North,0,0.0,0.0,27,0.00,CLR,FEW,0.00,WeatherDisplay:10.37,2013-02-18 22:48:00,
2013-02-18 17:53:00,47.5,15.9,30.36,North,0,0.0,0.0,28,0.00,CLR,FEW,0.00,WeatherDisplay:10.37,2013-02-18 22:53:00,
2013-02-18 17:58:00,47.3,15.8,30.36,North,0,0.0,0.0,28,0.00,CLR,FEW,0.00,WeatherDisplay:10.37,2013-02-18 22:58:00,
2013-02-18 18:03:00,47.3,15.8,30.36,North,0,0.0,0.0,28,0.00,CLR,FEW,0.00,WeatherDisplay:10.37,2013-02-18 23:03:00,
2013-02-18 18:08:00,47.3,15.8,30.36,North,0,0.0,0.0,28,0.00,CLR,FEW,0.00,WeatherDisplay:10.37,2013-02-18 23:08:00,
2013-02-18 18:13:00,47.3,15.8,30.36,North,0,0.0,0.0,28,0.00,CLR,FEW,0.00,WeatherDisplay:10.37,2013-02-18 23:13:00,
2013-02-18 18:18:00,47.3,15.8,30.36,North,0,0.0,0.0,28,0.00,CLR,FEW,0.00,WeatherDisplay:10.37,2013-02-18 23:18:00,
2013-02-18 18:23:00,47.3,15.8,30.36,North,0,0.0,0.0,28,0.00,CLR,FEW,0.00,WeatherDisplay:10.37,2013-02-18 23:23:00,
2013-02-18 18:28:00,47.3,16.6,30.36,North,0,0.0,0.0,29,0.00,CLR,FEW,0.00,WeatherDisplay:10.37,2013-02-18 23:28:00,
2013-02-18 18:33:00,47.3,16.6,30.36,North,0,0.0,0.0,29,0.00,CLR,FEW,0.00,WeatherDisplay:10.37,2013-02-18 23:33:00,
2013-02-18 18:38:00,47.3,16.6,30.36,North,0,0.0,0.0,29,0.00,CLR,FEW,0.00,WeatherDisplay:10.37,2013-02-18 23:38:00,
2013-02-18 18:43:00,47.1,16.4,30.36,North,0,0.0,0.0,29,0.00,CLR,FEW,0.00,WeatherDisplay:10.37,2013-02-18 23:43:00,
2013-02-18 18:48:00,47.3,17.4,30.36,North,0,0.0,0.0,30,0.00,CLR,FEW,0.00,WeatherDisplay:10.37,2013-02-18 23:48:00,
2013-02-18 18:53:00,47.3,17.4,30.36,North,0,0.0,0.0,30,0.00,CLR,FEW,0.00,WeatherDisplay:10.37,2013-02-18 23:53:00,
2013-02-18 18:58:00,47.3,17.4,30.36,North,0,0.0,0.0,30,0.00,CLR,FEW,0.00,WeatherDisplay:10.37,2013-02-18 23:58:00,
2013-02-18 19:03:00,47.3,17.4,30.36,North,0,0.0,0.0,30,0.00,CLR,FEW,0.00,WeatherDisplay:10.37,2013-02-19 00:03:00,
2013-02-18 19:09:00,47.5,18.3,30.36,North,0,0.0,0.0,31,0.00,CLR,FEW,0.00,WeatherDisplay:10.37,2013-02-19 00:09:00,
2013-02-18 19:14:00,47.5,18.3,30.33,North,0,0.0,0.0,31,0.00,CLR,FEW,0.00,WeatherDisplay:10.37,2013-02-19 00:14:00,
2013-02-18 19:19:00,47.5,18.3,30.33,North,0,0.0,0.0,31,0.00,CLR,FEW,0.00,WeatherDisplay:10.37,2013-02-19 00:19:00,
2013-02-18 19:24:00,47.7,18.5,30.33,North,0,0.0,0.0,31,0.00,CLR,FEW,0.00,WeatherDisplay:10.37,2013-02-19 00:24:00,
2013-02-18 19:29:00,47.5,19.0,30.33,North,0,0.0,0.0,32,0.00,CLR,FEW,0.00,WeatherDisplay:10.37,2013-02-19 00:29:00,
2013-02-18 19:34:00,47.5,19.8,30.33,North,0,0.0,0.0,33,0.00,CLR,FEW,0.00,WeatherDisplay:10.37,2013-02-19 00:34:00,
2013-02-18 19:39:00,47.1,20.2,30.33,North,0,0.0,0.0,34,0.00,CLR,FEW,0.00,WeatherDisplay:10.37,2013-02-19 00:39:00,
2013-02-18 19:44:00,46.0,21.2,30.33,North,0,0.0,0.0,37,0.00,CLR,FEW,0.00,WeatherDisplay:10.37,2013-02-19 00:44:00,
2013-02-18 19:49:00,46.0,21.2,30.33,North,0,0.0,0.0,37,0.00,CLR,FEW,0.00,WeatherDisplay:10.37,2013-02-19 00:49:00,
2013-02-18 19:54:00,43.7,20.3,30.33,North,0,0.0,0.0,39,0.00,CLR,FEW,0.00,WeatherDisplay:10.37,2013-02-19 00:54:00,
2013-02-18 19:59:00,43.0,20.3,30.33,North,0,0.0,0.0,40,0.00,CLR,FEW,0.00,WeatherDisplay:10.37,2013-02-19 00:59:00,
2013-02-18 20:04:00,42.4,20.4,30.33,North,0,0.0,0.0,41,0.00,CLR,FEW,0.00,WeatherDisplay:10.37,2013-02-19 01:04:00,
2013-02-18 20:09:00,42.1,20.6,30.33,North,0,0.0,0.0,42,0.00,CLR,FEW,0.00,WeatherDisplay:10.37,2013-02-19 01:09:00,
2013-02-18 20:15:00,41.7,20.3,30.33,North,0,0.0,0.0,42,0.00,CLR,FEW,0.00,WeatherDisplay:10.37,2013-02-19 01:15:00,
2013-02-18 20:21:00,41.4,20.5,30.33,North,0,0.0,0.0,43,0.00,CLR,FEW,0.00,WeatherDisplay:10.37,2013-02-19 01:21:00,
2013-02-18 20:26:00,41.0,20.2,30.33,North,0,0.0,0.0,43,0.00,CLR,FEW,0.00,WeatherDisplay:10.37,2013-02-19 01:26:00,
2013-02-18 20:31:00,40.6,20.4,30.33,North,0,0.0,0.0,44,0.00,CLR,FEW,0.00,WeatherDisplay:10.37,2013-02-19 01:31:00,
2013-02-18 20:36:00,40.5,19.7,30.33,North,0,0.0,0.0,43,0.00,CLR,FEW,0.00,WeatherDisplay:10.37,2013-02-19 01:36:00,
2013-02-18 20:41:00,40.1,19.9,30.33,North,0,0.0,0.0,44,0.00,CLR,FEW,0.00,WeatherDisplay:10.37,2013-02-19 01:41:00,
2013-02-18 20:46:00,39.7,19.6,30.33,North,0,0.0,0.0,44,0.00,CLR,FEW,0.00,WeatherDisplay:10.37,2013-02-19 01:46:00,
2013-02-18 20:51:00,39.7,20.6,30.33,North,0,0.0,0.0,46,0.00,CLR,FEW,0.00,WeatherDisplay:10.37,2013-02-19 01:51:00,
2013-02-18 20:56:00,39.4,20.3,30.33,North,0,0.0,0.0,46,0.00,CLR,FEW,0.00,WeatherDisplay:10.37,2013-02-19 01:56:00,
2013-02-18 21:01:00,39.2,21.6,30.33,North,0,0.0,0.0,49,0.00,CLR,FEW,0.00,WeatherDisplay:10.37,2013-02-19 02:01:00,
2013-02-18 21:06:00,39.0,21.5,30.33,North,0,0.0,0.0,49,0.00,CLR,FEW,0.00,WeatherDisplay:10.37,2013-02-19 02:06:00,
2013-02-18 21:11:00,38.8,21.3,30.33,North,0,0.0,0.0,49,0.00,CLR,FEW,0.00,WeatherDisplay:10.37,2013-02-19 02:11:00,
2013-02-18 21:16:00,38.8,22.7,30.33,North,0,0.0,0.0,52,0.00,CLR,FEW,0.00,WeatherDisplay:10.37,2013-02-19 02:16:00,
2013-02-18 21:21:00,38.7,22.1,30.33,North,0,0.0,0.0,51,0.00,CLR,FEW,0.00,WeatherDisplay:10.37,2013-02-19 02:21:00,
2013-02-18 21:26:00,38.5,21.9,30.33,North,0,0.0,0.0,51,0.00,CLR,FEW,0.00,WeatherDisplay:10.37,2013-02-19 02:26:00,
2013-02-18 21:32:00,38.3,22.2,30.33,North,0,0.0,0.0,52,0.00,CLR,FEW,0.00,WeatherDisplay:10.37,2013-02-19 02:32:00,
2013-02-18 21:38:00,38.1,22.5,30.33,North,0,0.0,0.0,53,0.00,CLR,FEW,0.00,WeatherDisplay:10.37,2013-02-19 02:38:00,
2013-02-18 21:43:00,37.9,22.8,30.33,North,0,0.0,0.0,54,0.00,CLR,FEW,0.00,WeatherDisplay:10.37,2013-02-19 02:43:00,
2013-02-18 21:49:00,37.8,23.0,30.30,North,0,0.0,0.0,55,0.00,CLR,FEW,0.00,WeatherDisplay:10.37,2013-02-19 02:49:00,
2013-02-18 21:54:00,37.6,22.9,30.30,North,0,0.0,0.0,55,0.00,CLR,FEW,0.00,WeatherDisplay:10.37,2013-02-19 02:54:00,
2013-02-18 21:59:00,37.4,22.7,30.30,North,0,0.0,0.0,55,0.00,CLR,FEW,0.00,WeatherDisplay:10.37,2013-02-19 02:59:00,
2013-02-18 22:04:00,37.4,23.1,30.30,North,0,0.0,0.0,56,0.00,CLR,FEW,0.00,WeatherDisplay:10.37,2013-02-19 03:04:00,
2013-02-18 22:09:00,37.2,23.4,30.30,North,0,0.0,0.0,57,0.00,CLR,FEW,0.00,WeatherDisplay:10.37,2013-02-19 03:09:00,
2013-02-18 22:14:00,37.0,23.2,30.30,North,0,0.0,0.0,57,0.00,CLR,FEW,0.00,WeatherDisplay:10.37,2013-02-19 03:14:00,
2013-02-18 22:19:00,37.0,23.2,30.30,North,0,0.0,0.0,57,0.00,CLR,FEW,0.00,WeatherDisplay:10.37,2013-02-19 03:19:00,
2013-02-18 22:24:00,36.9,23.0,30.30,North,0,0.0,0.0,57,0.00,CLR,FEW,0.00,WeatherDisplay:10.37,2013-02-19 03:24:00,
2013-02-18 22:29:00,36.9,23.4,30.30,North,0,0.0,0.0,58,0.00,CLR,FEW,0.00,WeatherDisplay:10.37,2013-02-19 03:29:00,
2013-02-18 22:34:00,36.7,23.7,30.30,North,0,0.0,0.0,59,0.00,CLR,FEW,0.00,WeatherDisplay:10.37,2013-02-19 03:34:00,
2013-02-18 22:39:00,36.7,23.7,30.30,North,0,0.0,0.0,59,0.00,CLR,FEW,0.00,WeatherDisplay:10.37,2013-02-19 03:39:00,
2013-02-18 22:44:00,36.7,24.1,30.30,North,0,0.0,0.0,60,0.00,CLR,FEW,0.00,WeatherDisplay:10.37,2013-02-19 03:44:00,
2013-02-18 22:49:00,36.7,25.3,30.30,North,0,0.0,0.0,63,0.00,CLR,FEW,0.00,WeatherDisplay:10.37,2013-02-19 03:49:00,
2013-02-18 22:54:00,36.5,25.8,30.30,North,0,0.0,0.0,65,0.00,CLR,FEW,0.00,WeatherDisplay:10.37,2013-02-19 03:54:00,
2013-02-18 22:59:00,36.5,25.8,30.30,North,0,0.0,0.0,65,0.00,CLR,FEW,0.00,WeatherDisplay:10.37,2013-02-19 03:59:00,
2013-02-18 23:04:00,36.5,26.2,30.30,North,0,0.0,0.0,66,0.00,CLR,FEW,0.00,WeatherDisplay:10.37,2013-02-19 04:04:00,
2013-02-18 23:09:00,36.3,26.0,30.30,North,0,0.0,0.0,66,0.00,CLR,FEW,0.00,WeatherDisplay:10.37,2013-02-19 04:09:00,
2013-02-18 23:14:00,36.3,26.0,30.27,North,0,0.0,0.0,66,0.00,CLR,FEW,0.00,WeatherDisplay:10.37,2013-02-19 04:14:00,
2013-02-18 23:19:00,36.3,26.0,30.27,North,0,0.0,0.0,66,0.00,CLR,FEW,0.00,WeatherDisplay:10.37,2013-02-19 04:19:00,
2013-02-18 23:24:00,36.1,26.2,30.27,North,0,0.0,0.0,67,0.00,CLR,FEW,0.00,WeatherDisplay:10.37,2013-02-19 04:24:00,
2013-02-18 23:30:00,36.1,26.6,30.27,North,0,0.0,0.0,68,0.00,CLR,FEW,0.00,WeatherDisplay:10.37,2013-02-19 04:30:00,
2013-02-18 23:35:00,36.1,26.6,30.27,North,0,0.0,0.0,68,0.00,CLR,FEW,0.00,WeatherDisplay:10.37,2013-02-19 04:35:00,
2013-02-18 23:40:00,36.1,26.6,30.27,North,0,0.0,0.0,68,0.00,CLR,FEW,0.00,WeatherDisplay:10.37,2013-02-19 04:40:00,
2013-02-18 23:45:00,36.0,26.8,30.27,North,0,0.0,0.0,69,0.00,CLR,FEW,0.00,WeatherDisplay:10.37,2013-02-19 04:45:00,
2013-02-18 23:50:00,36.0,26.8,30.27,North,0,0.0,0.0,69,0.00,CLR,FEW,0.00,WeatherDisplay:10.37,2013-02-19 04:50:00,
2013-02-18 23:55:00,36.0,26.8,30.27,North,0,0.0,0.0,69,0.00,CLR,FEW,0.00,WeatherDisplay:10.37,2013-02-19 04:55:00,